Location: Unspecified
(0.0000°N, 0.0000°E)
Time: 09:03:49
(UTC+00:00)

deb Blok Kosmos - Visible Passes

Search period start: 10 December 2025 00:00
Search period end: 20 December 2025 00:00
Orbit: 755 x 2055 km, 56.1° (Epoch: 09 December)

Date Brightness Start Highest point End Pass type
(mag) Time Alt. Az. Time Alt. Az. Time Alt. Az.
10 Dec ? 02:15:04 10° SSE 02:21:19 16° ESE 02:27:44 10° E visible
10 Dec ? 04:08:58 10° SSW 04:20:58 79° ESE 04:32:54 10° NE visible
11 Dec ? 02:53:47 10° S 03:04:16 38° ESE 03:15:02 10° ENE visible
11 Dec ? 04:52:00 10° SW 05:03:39 54° WNW 05:15:01 10° NNE visible
12 Dec ? 01:41:45 10° SSE 01:47:22 15° ESE 01:53:09 10° E visible
12 Dec ? 03:35:07 10° SSW 03:46:59 76° ESE 03:58:59 10° NE visible
13 Dec ? 02:20:05 10° S 02:30:18 36° ESE 02:40:55 10° ENE visible
13 Dec ? 04:18:01 10° SW 04:29:40 57° WNW 04:41:14 10° NNE visible
14 Dec ? 01:08:34 10° SSE 01:13:25 13° ESE 01:18:24 10° E visible
14 Dec ? 03:01:16 10° SSW 03:13:00 73° ESE 03:25:02 10° NE visible
14 Dec ? 05:02:58 10° WSW 05:12:28 27° WNW 05:21:46 10° N visible
15 Dec ? 01:46:23 10° S 01:56:19 34° ESE 02:06:47 10° ENE visible
15 Dec ? 03:44:01 10° SW 03:55:40 60° WNW 04:07:24 10° NNE visible
16 Dec ? 00:35:33 10° SE 00:39:28 12° ESE 00:43:28 10° ESE visible
16 Dec ? 02:27:26 10° SSW 02:39:00 69° ESE 02:51:04 10° NE visible
16 Dec ? 04:28:46 10° WSW 04:38:29 29° WNW 04:48:05 10° N visible
17 Dec ? 01:12:42 10° S 01:29:56 17° ENE 01:32:35 10° ENE visible
17 Dec ? 03:10:04 10° SW 03:24:21 53° NNW 03:33:32 10° NNE visible
17 Dec ? 05:19:54 10° WNW 05:21:38 10° NW 05:23:22 10° NW visible
18 Dec ? 00:02:56 10° SE 00:03:19 10° SE 00:03:19 10° SE visible
18 Dec ? 01:53:35 10° SSW 02:15:10 17° NE 02:17:03 10° NE visible
18 Dec ? 04:09:18 23° NNW 04:09:18 23° NNW 04:14:22 10° N visible
19 Dec ? 00:39:02 10° S 00:41:44 18° SSE 00:41:44 18° SSE visible
19 Dec ? 02:58:28 14° NNE 02:58:28 14° NNE 02:59:39 10° NNE visible
